TimeEST,TemperatureF,Dew PointF,Humidity,Sea Level PressureIn,VisibilityMPH,Wind Direction,Wind SpeedMPH,Gust SpeedMPH,PrecipitationIn,Events,Conditions,WindDirDegrees,DateUTC
12:53 AM,73.0,66.0,79,30.02,10.0,NNE,3.5,-,N/A,,Partly Cloudy,20,2012-11-05 05:53:00
1:53 AM,73.9,66.0,76,30.01,10.0,NE,3.5,-,N/A,,Partly Cloudy,40,2012-11-05 06:53:00
2:53 AM,73.0,64.9,76,29.99,10.0,ENE,4.6,-,N/A,,Clear,60,2012-11-05 07:53:00
3:53 AM,73.0,64.9,76,29.99,10.0,NE,3.5,-,N/A,,Clear,40,2012-11-05 08:53:00
4:53 AM,73.0,66.0,79,29.99,10.0,NE,3.5,-,N/A,,Clear,40,2012-11-05 09:53:00
5:53 AM,73.0,66.0,79,30.01,10.0,North,5.8,-,N/A,,Clear,10,2012-11-05 10:53:00
6:53 AM,73.4,66.2,78,30.02,10.0,NE,4.6,-,N/A,,Clear,40,2012-11-05 11:53:00
7:53 AM,73.9,66.0,76,30.02,10.0,NE,6.9,-,N/A,,Clear,40,2012-11-05 12:53:00
8:53 AM,75.0,66.0,73,30.02,10.0,NE,5.8,-,N/A,,Clear,50,2012-11-05 13:53:00
9:53 AM,75.0,66.0,73,30.02,10.0,NE,6.9,-,N/A,,Clear,40,2012-11-05 14:53:00
10:53 AM,77.0,64.9,66,30.02,10.0,NNE,9.2,-,N/A,,Clear,20,2012-11-05 15:53:00
11:53 AM,77.0,66.0,69,30.01,10.0,NE,8.1,-,N/A,,Partly Cloudy,40,2012-11-05 16:53:00
12:53 PM,79.0,64.0,60,29.98,10.0,Variable,6.9,-,N/A,,Clear,0,2012-11-05 17:53:00
1:53 PM,78.1,63.0,60,29.96,10.0,NNE,9.2,-,N/A,,Clear,30,2012-11-05 18:53:00
2:53 PM,77.0,62.1,60,29.96,10.0,North,8.1,-,N/A,,Clear,10,2012-11-05 19:53:00
3:53 PM,75.0,64.9,71,29.96,10.0,NE,6.9,-,N/A,,Clear,40,2012-11-05 20:53:00
4:53 PM,73.9,64.0,71,29.96,10.0,NE,4.6,-,N/A,,Mostly Cloudy,40,2012-11-05 21:53:00
5:53 PM,73.9,64.0,71,29.97,10.0,NNE,3.5,-,N/A,,Overcast,30,2012-11-05 22:53:00
6:53 PM,73.9,62.1,66,29.98,10.0,NE,3.5,-,N/A,,Overcast,40,2012-11-05 23:53:00
7:53 PM,73.9,62.1,66,29.98,10.0,ENE,3.5,-,N/A,,Overcast,60,2012-11-06 00:53:00
8:53 PM,73.9,63.0,68,29.99,10.0,NNE,3.5,-,N/A,,Overcast,30,2012-11-06 01:53:00
9:53 PM,73.9,63.0,68,29.98,10.0,Calm,Calm,-,N/A,,Overcast,0,2012-11-06 02:53:00
10:53 PM,73.0,64.0,73,29.97,10.0,Calm,Calm,-,N/A,,Mostly Cloudy,0,2012-11-06 03:53:00
11:53 PM,72.0,64.0,76,29.95,10.0,Calm,Calm,-,N/A,,Clear,0,2012-11-06 04:53:00